Regional Weather Roundup
Issued by NWS

Home | Current Version | Previous Version | Text Only | Print | Product List | Glossary On
Versions: 1 2 3 4 5 6 7 8 9 10 11 12 13 14 15 16 17 18 19 20 21 22 23 24 25 26 27 28 29 30 31 32 33 34 35 36 37 38 39 40 41 42 43 44 45 46 47 48 49 50
000
ASUS43 KOAX 070310
RWRNE

WEATHER ROUNDUP FOR NEBRASKA
NATIONAL WEATHER SERVICE OMAHA NE
1000 PM CDT WED MAY 06 2015

NOTES: SATELLITE DATA IS BEING USED TO AUGMENT CLOUD COVER ABOVE
       12000 FEET.
       "FAIR" INDICATES FEW OR NO CLOUDS BELOW 12,000 FEET WITH NO
       SIGNIFICANT WEATHER AND/OR OBSTRUCTIONS TO VISIBILITY.

  * THESE STATIONS DO NOT REPORT WEATHER SUCH AS RAIN...SNOW OR FOG.

NEZ001>004-019>022-054>056-070400-
NEBRASKA PANHANDLE

CITY           SKY/WX    TMP DP  RH WIND       PRES   REMARKS
SCOTTSBLUFF    LGT RAIN  50  45  83 NW23G31   29.74R
ALLIANCE       CLOUDY    52  50  93 N14G22    29.68R
CHADRON        CLOUDY    52  50  93 W10       29.70R
KIMBALL        CLOUDY    49  48  95 NW21G26   29.75R
SIDNEY         PTCLDY    53  51  93 NW20G26   29.72R
$$

NEZ057>060-069>072-079>082-070400-
SOUTHWEST NEBRASKA

CITY           SKY/WX    TMP DP  RH WIND       PRES   REMARKS
NORTH PLATTE   CLOUDY    61  54  77 CALM      29.61R
IMPERIAL       PTCLDY    57  54  89 W8        29.64R
LEXINGTON      CLOUDY    63  60  89 SE3       29.62R
MCCOOK         MOCLDY    62  55  77 SW6       29.61R
OGALLALA       PTCLDY    55  52  92 CALM      29.64R
$$

NEZ005>010-023>029-035>040-094-070400-
NORTH CENTRAL NEBRASKA

CITY           SKY/WX    TMP DP  RH WIND       PRES   REMARKS
VALENTINE      CLOUDY    59  57  93 E6        29.61R
AINSWORTH      MOCLDY    56  55  97 S5        29.61S
BROKEN BOW     MOCLDY    59  57  93 E5        29.61R
O`NEILL        MOCLDY    63  59  89 SE14      29.62R
ORD            MOCLDY    59  57  93 SE7       29.60R
THEDFORD       CLOUDY    60  58  94 SE6       29.62R
$$

NEZ041-046>049-061>064-073>077-083>087-070400-
SOUTH CENTRAL NEBRASKA

CITY           SKY/WX    TMP DP  RH WIND       PRES   REMARKS
GRAND ISLAND   CLOUDY    60  57  89 SE10      29.63S
AURORA         CLOUDY    60  60  99 SE14      29.64R
HASTINGS       LGT RAIN  60  58  92 SE15      29.62R
HEBRON         CLOUDY    58  56  94 E8        29.66F
HOLDREGE       CLOUDY    59  57  93 SE5       29.61R
KEARNEY *      CLOUDY    59  55  88 E7        29.63R
YORK           CLOUDY    61  59  94 SE14      29.67R
$$

NEZ011>018-030>034-042>045-070400-
NORTHEAST NEBRASKA

CITY           SKY/WX    TMP DP  RH WIND       PRES   REMARKS
NORFOLK        LGT RAIN  62  58  86 SE16G24   29.64S
ALBION         CLOUDY    58  56  91 SE13G18   29.64R
BLAIR          RAIN      64  59  82 SE14G23   29.74F
COLUMBUS *     CLOUDY    61  55  82 SE16G23   29.68S
FREMONT        RAIN      63  61  94 S13G20    29.74S
TEKAMAH        RAIN      65  61  87 SE13      29.74R
WAYNE          CLOUDY    64  61  92 SE22G33   29.68S
$$

NEZ050>053-065>068-078-088>093-070400-
SOUTHEAST NEBRASKA

CITY           SKY/WX    TMP DP  RH WIND       PRES   REMARKS
LINCOLN        TSTM      62  60  93 SE12      29.74S FOG
OMAHA EPPLEY   TSTM      67  60  78 SE21      29.75S
BEATRICE       CLOUDY    66  63  89 SE22G28   29.69S
FALLS CITY     CLOUDY    68  61  78 SE16G26   29.77R
NEBRASKA CITY  CLOUDY    67  59  75 SE20G29   29.76R
PLATTSMOUTH    TSTM      66  60  79 SE20G26   29.76R
$$

NEZ044-045-051>053-067-070400-
OMAHA AREA

CITY           SKY/WX    TMP DP  RH WIND       PRES   REMARKS
OMAHA EPPLEY   TSTM      67  60  78 SE21      29.75S
BLAIR          RAIN      64  59  82 SE14G23   29.74F
FREMONT        RAIN      63  61  94 S13G20    29.74S
MILLARD        TSTM      66  62  86 SW9G20    29.76R
OFFUTT AFB     MOCLDY    66  61  83 SE18G25   29.75R THUNDER
PLATTSMOUTH    TSTM      66  60  79 SE20G26   29.76R
WAHOO          RAIN      62  58  87 SE8       29.71F
$$


USA.gov is the U.S. government's official web portal to all federal, state and local government web resources and services.